FIN62Y RJTT-EFHK

Flight info

Callsign FIN62Y
Flight time N/A
Altitude 35000
Route INUBO Y808 PUTER A590 PASRO/N0494F370 A590 POWAL DCT OPAKE DCT NATES R338 MARCC DCT JUJXI/N0497F390 DCT OMEKA DCT 81N120W 82N100W 82N080W 82N060W/M085F410 82N040W 81N020W 78N000W/N0499F410 DCT VATAX DCT IBOSU Y86 LUSEP
Aircraft A359/H-SDE2E3GHIJ3J4J5LM1ORWXY/LB1D1

Departure

Time 2026-05-06 13:32
Airport Tokyo Haneda International Airport (RJTT)

Arrival

Time N/A
Airport Helsinki Vantaa Airport (EFHK)
Time Latitude Longitude Altitude Speed Heading
2026-05-06 12:39 35.54267 139.77222 29 ft 0 kts 240°
2026-05-06 13:12 35.54262 139.77212 29 ft 5 kts 240°
2026-05-06 13:12 35.54246 139.77175 29 ft 5 kts 240°
2026-05-06 13:12 35.54245 139.77169 29 ft 0 kts 240°
2026-05-06 13:13 35.54251 139.77181 29 ft 4 kts 237°
2026-05-06 13:13 35.54267 139.77208 29 ft 4 kts 228°
2026-05-06 13:13 35.54286 139.77231 28 ft 4 kts 219°
2026-05-06 13:14 35.54308 139.77250 28 ft 4 kts 209°
2026-05-06 13:14 35.54333 139.77264 28 ft 4 kts 199°
2026-05-06 13:14 35.54359 139.77273 28 ft 4 kts 189°
2026-05-06 13:14 35.54386 139.77276 28 ft 4 kts 177°
2026-05-06 13:15 35.54412 139.77271 28 ft 4 kts 160°
2026-05-06 13:15 35.54425 139.77264 27 ft 2 kts 144°
2026-05-06 13:15 35.54418 139.77270 27 ft 0 kts 144°
2026-05-06 13:18 35.54416 139.77272 28 ft 1 kts 145°
2026-05-06 13:18 35.54407 139.77278 27 ft 2 kts 149°
2026-05-06 13:18 35.54393 139.77289 28 ft 3 kts 150°
2026-05-06 13:19 35.54373 139.77303 27 ft 4 kts 150°
2026-05-06 13:19 35.54353 139.77326 27 ft 4 kts 128°
2026-05-06 13:19 35.54376 139.77426 29 ft 21 kts 52°
2026-05-06 13:19 35.54437 139.77553 29 ft 15 kts 60°
2026-05-06 13:20 35.54410 139.77649 29 ft 13 kts 147°
2026-05-06 13:20 35.54334 139.77705 29 ft 13 kts 150°
2026-05-06 13:20 35.54256 139.77761 29 ft 13 kts 149°
2026-05-06 13:20 35.54178 139.77817 29 ft 13 kts 149°
2026-05-06 13:21 35.54097 139.77875 29 ft 14 kts 150°
2026-05-06 13:21 35.54021 139.77940 29 ft 13 kts 122°
2026-05-06 13:21 35.54042 139.78029 29 ft 11 kts 57°
2026-05-06 13:21 35.54084 139.78115 29 ft 12 kts 60°
2026-05-06 13:22 35.54124 139.78199 31 ft 11 kts 60°
2026-05-06 13:22 35.54163 139.78283 31 ft 12 kts 59°
2026-05-06 13:22 35.54210 139.78377 29 ft 13 kts 59°
2026-05-06 13:22 35.54257 139.78475 30 ft 13 kts 60°
2026-05-06 13:23 35.54302 139.78573 30 ft 13 kts 60°
2026-05-06 13:23 35.54350 139.78673 30 ft 14 kts 59°
2026-05-06 13:23 35.54399 139.78777 30 ft 14 kts 60°
2026-05-06 13:23 35.54450 139.78882 31 ft 14 kts 59°
2026-05-06 13:24 35.54502 139.78990 31 ft 15 kts 59°
2026-05-06 13:24 35.54554 139.79102 31 ft 15 kts 60°
2026-05-06 13:24 35.54609 139.79218 30 ft 16 kts 60°
2026-05-06 13:24 35.54666 139.79336 30 ft 16 kts 59°
2026-05-06 13:25 35.54722 139.79456 30 ft 16 kts 60°
2026-05-06 13:25 35.54780 139.79580 30 ft 17 kts 59°
2026-05-06 13:25 35.54773 139.79688 29 ft 14 kts 143°
2026-05-06 13:25 35.54692 139.79748 29 ft 14 kts 149°
2026-05-06 13:26 35.54609 139.79807 29 ft 14 kts 150°
2026-05-06 13:26 35.54525 139.79866 29 ft 14 kts 150°
2026-05-06 13:26 35.54441 139.79926 29 ft 14 kts 150°
2026-05-06 13:26 35.54355 139.79985 29 ft 14 kts 150°
2026-05-06 13:27 35.54269 139.80045 29 ft 14 kts 150°
2026-05-06 13:27 35.54183 139.80107 29 ft 14 kts 149°
2026-05-06 13:27 35.54097 139.80169 29 ft 14 kts 149°
2026-05-06 13:27 35.54010 139.80231 29 ft 14 kts 150°
2026-05-06 13:28 35.53924 139.80293 29 ft 14 kts 141°
2026-05-06 13:28 35.53928 139.80386 29 ft 11 kts 59°
2026-05-06 13:28 35.53931 139.80392 29 ft 0 kts 59°
2026-05-06 13:29 35.53935 139.80399 29 ft 4 kts 59°
2026-05-06 13:29 35.53961 139.80452 29 ft 9 kts 53°
2026-05-06 13:29 35.54013 139.80479 30 ft 8 kts 354°
2026-05-06 13:29 35.54039 139.80460 30 ft 0 kts 330°
2026-05-06 13:30 35.54043 139.80458 30 ft 0 kts 330°
2026-05-06 13:30 35.54044 139.80457 30 ft 1 kts 330°
2026-05-06 13:31 35.54068 139.80440 30 ft 21 kts 330°
2026-05-06 13:31 35.54390 139.80213 30 ft 83 kts 330°
2026-05-06 13:31 35.55054 139.79742 30 ft 136 kts 330°
2026-05-06 13:32 35.56004 139.79071 118 ft 168 kts 329°
2026-05-06 13:32 35.56991 139.78358 642 ft 164 kts 328°
2026-05-06 13:32 35.57702 139.77270 952 ft 164 kts 290°
2026-05-06 13:32 35.58547 139.76426 1466 ft 159 kts 349°
2026-05-06 13:33 35.59530 139.76836 1676 ft 153 kts 58°
2026-05-06 13:33 35.59856 139.78027 1883 ft 157 kts 94°
2026-05-06 13:33 35.59983 139.79484 2235 ft 181 kts 87°
2026-05-06 13:33 35.60183 139.81056 2738 ft 188 kts 84°
2026-05-06 13:34 35.60630 139.82624 2899 ft 202 kts 68°
2026-05-06 13:34 35.61050 139.84341 2970 ft 217 kts 90°
2026-05-06 13:34 35.61079 139.86212 3161 ft 229 kts 96°
2026-05-06 13:34 35.61024 139.88239 3378 ft 245 kts 95°
2026-05-06 13:35 35.60973 139.90398 3609 ft 260 kts 95°
2026-05-06 13:35 35.61068 139.92669 3903 ft 274 kts 80°
2026-05-06 13:35 35.61915 139.94790 4292 ft 284 kts 47°
2026-05-06 13:35 35.63562 139.96084 4777 ft 284 kts 14°
2026-05-06 13:36 35.65504 139.96405 5320 ft 282 kts 360°
2026-05-06 13:36 35.67469 139.96512 5817 ft 285 kts 359°
2026-05-06 13:36 35.69460 139.96615 6334 ft 287 kts 359°
2026-05-06 13:36 35.71466 139.96730 6846 ft 289 kts 359°
2026-05-06 13:37 35.73478 139.96718 7309 ft 289 kts 348°
2026-05-06 13:37 35.75395 139.96068 7828 ft 284 kts 334°
2026-05-06 13:37 35.77246 139.95197 8343 ft 286 kts 333°
2026-05-06 13:37 35.79103 139.94305 8858 ft 288 kts 333°
2026-05-06 13:38 35.80974 139.93412 9383 ft 289 kts 333°
2026-05-06 13:38 35.82860 139.92517 9916 ft 291 kts 333°
2026-05-06 13:38 35.84764 139.91617 10286 ft 298 kts 333°
2026-05-06 13:38 35.86745 139.90677 10491 ft 311 kts 333°
2026-05-06 13:39 35.88799 139.89706 10716 ft 322 kts 334°
2026-05-06 13:39 35.90928 139.88702 10938 ft 334 kts 335°
2026-05-06 13:39 35.93139 139.87672 11149 ft 345 kts 335°
2026-05-06 13:39 35.95412 139.86603 11349 ft 355 kts 335°
2026-05-06 13:40 35.97834 139.85758 11506 ft 371 kts 348°
2026-05-06 13:40 36.00456 139.85838 11673 ft 387 kts
2026-05-06 13:40 36.03062 139.86850 11863 ft 398 kts 18°
2026-05-06 13:40 36.05668 139.88091 12172 ft 403 kts 19°
2026-05-06 13:41 36.08291 139.89348 12546 ft 406 kts 18°
2026-05-06 13:41 36.10907 139.90590 12924 ft 407 kts 19°
2026-05-06 13:41 36.13554 139.91840 13384 ft 408 kts 18°
2026-05-06 13:41 36.16219 139.93200 13727 ft 412 kts 25°
2026-05-06 13:42 36.18544 139.95223 14039 ft 419 kts 43°
2026-05-06 13:42 36.20266 139.98141 14336 ft 423 kts 63°
2026-05-06 13:42 36.21189 140.01602 14696 ft 424 kts 77°
2026-05-06 13:42 36.21770 140.05194 14982 ft 427 kts 79°
2026-05-06 13:43 36.22321 140.08824 15300 ft 430 kts 79°
2026-05-06 13:43 36.22884 140.12474 15629 ft 432 kts 79°
2026-05-06 13:43 36.23460 140.16143 15929 ft 435 kts 79°
2026-05-06 13:43 36.24041 140.19839 16217 ft 438 kts 80°
2026-05-06 13:44 36.24334 140.23584 16553 ft 438 kts 92°
2026-05-06 13:44 36.23894 140.27314 16823 ft 438 kts 108°
2026-05-06 13:44 36.22664 140.30737 17076 ft 436 kts 125°
2026-05-06 13:44 36.20749 140.33622 17394 ft 432 kts 140°
2026-05-06 13:45 36.18445 140.36000 17713 ft 431 kts 145°
2026-05-06 13:45 36.13707 140.40525 18349 ft 435 kts 146°
2026-05-06 13:45 36.11279 140.42852 18614 ft 437 kts 146°
2026-05-06 13:46 36.08900 140.45138 18862 ft 439 kts 146°
2026-05-06 13:46 36.06485 140.47463 19126 ft 441 kts 146°
2026-05-06 13:46 36.04066 140.49793 19378 ft 443 kts 147°
2026-05-06 13:46 36.01630 140.52138 19631 ft 444 kts 147°
2026-05-06 13:47 35.99187 140.54491 19880 ft 446 kts 147°
2026-05-06 13:47 35.96731 140.56853 20108 ft 448 kts 148°
2026-05-06 13:47 35.94265 140.59224 20338 ft 450 kts 148°
2026-05-06 13:47 35.91791 140.61601 20591 ft 452 kts 148°
2026-05-06 13:48 35.89305 140.63987 20817 ft 453 kts 148°
2026-05-06 13:48 35.86814 140.66378 21110 ft 453 kts 149°
2026-05-06 13:48 35.84328 140.68763 21452 ft 453 kts 149°
2026-05-06 13:48 35.81842 140.71144 21757 ft 452 kts 149°
2026-05-06 13:49 35.79390 140.73491 22050 ft 452 kts 149°
2026-05-06 13:49 35.76907 140.75868 22289 ft 454 kts 149°
2026-05-06 13:49 35.74521 140.78459 22519 ft 463 kts 141°
2026-05-06 13:49 35.72505 140.81619 22750 ft 476 kts 129°
2026-05-06 13:50 35.70998 140.85312 22939 ft 487 kts 120°
2026-05-06 13:50 35.69742 140.89198 23089 ft 493 kts 117°
2026-05-06 13:50 35.68576 140.93177 23289 ft 495 kts 116°
2026-05-06 13:50 35.67445 140.97190 23542 ft 496 kts 116°
2026-05-06 13:51 35.66317 141.01200 23751 ft 497 kts 116°
2026-05-06 13:51 35.65172 141.05217 23902 ft 498 kts 117°
2026-05-06 13:51 35.64003 141.09253 24039 ft 500 kts 117°
2026-05-06 13:51 35.62819 141.13288 24206 ft 501 kts 117°
2026-05-06 13:52 35.61625 141.17323 24267 ft 505 kts 117°
2026-05-06 13:52 35.60408 141.21406 24253 ft 511 kts 117°
2026-05-06 13:52 35.59186 141.25502 24440 ft 511 kts 117°
2026-05-06 13:52 35.57961 141.29613 24617 ft 512 kts 117°
2026-05-06 13:53 35.56748 141.33678 24763 ft 514 kts 117°
2026-05-06 13:53 35.55512 141.37815 24893 ft 516 kts 117°
2026-05-06 13:53 35.54270 141.41965 25037 ft 518 kts 117°
2026-05-06 13:53 35.53026 141.46115 25129 ft 520 kts 117°
2026-05-06 13:54 35.51770 141.50295 25189 ft 523 kts 117°
2026-05-06 13:54 35.50508 141.54494 25369 ft 524 kts 117°
2026-05-06 13:54 35.49244 141.58698 25538 ft 525 kts 117°
2026-05-06 13:54 35.47978 141.62904 25719 ft 526 kts 117°
2026-05-06 13:55 35.46704 141.67125 25875 ft 527 kts 117°
2026-05-06 13:55 35.45468 141.71377 26053 ft 531 kts 113°
2026-05-06 13:55 35.44599 141.75820 26193 ft 540 kts 104°
2026-05-06 13:55 35.44237 141.80429 26388 ft 545 kts 97°
2026-05-06 13:56 35.44093 141.85089 26555 ft 548 kts 95°
2026-05-06 13:56 35.44042 141.89774 26720 ft 550 kts 94°
2026-05-06 13:56 35.44031 141.94461 26888 ft 551 kts 94°
2026-05-06 13:56 35.44028 141.99113 27055 ft 553 kts 94°
2026-05-06 13:57 35.44018 142.03897 27225 ft 554 kts 94°
2026-05-06 13:57 35.43997 142.08557 27403 ft 554 kts 94°
2026-05-06 13:57 35.43964 142.13342 27576 ft 556 kts 94°
2026-05-06 13:57 35.43925 142.18026 27723 ft 557 kts 95°
2026-05-06 13:58 35.43879 142.22785 27878 ft 558 kts 95°
2026-05-06 13:58 35.43829 142.27562 28022 ft 559 kts 94°
2026-05-06 13:58 35.43777 142.32343 28128 ft 562 kts 94°
2026-05-06 13:58 35.43723 142.37143 28227 ft 564 kts 94°
2026-05-06 13:59 35.43669 142.41977 28397 ft 565 kts 94°
2026-05-06 13:59 35.43613 142.46818 28534 ft 567 kts 94°
2026-05-06 13:59 35.43556 142.51653 28673 ft 568 kts 94°
2026-05-06 13:59 35.43497 142.56497 28790 ft 570 kts 94°
2026-05-06 14:00 35.43438 142.61364 28920 ft 571 kts 94°
2026-05-06 14:00 35.43374 142.66235 29045 ft 572 kts 94°
2026-05-06 14:00 35.43306 142.71122 29158 ft 574 kts 94°
2026-05-06 14:00 35.43235 142.76015 29276 ft 575 kts 94°
2026-05-06 14:01 35.43092 142.85739 29808 ft 570 kts 94°
2026-05-06 14:01 35.43019 142.90585 30093 ft 568 kts 94°
2026-05-06 14:01 35.42943 142.95442 30238 ft 569 kts 94°
2026-05-06 14:02 35.42865 143.00298 30397 ft 569 kts 94°
2026-05-06 14:02 35.42785 143.05151 30603 ft 568 kts 94°
2026-05-06 14:02 35.42703 143.09992 30798 ft 568 kts 94°
2026-05-06 14:02 35.42619 143.14829 30986 ft 567 kts 94°
2026-05-06 14:03 35.42638 143.19681 31157 ft 570 kts 88°
2026-05-06 14:03 35.43196 143.24491 31336 ft 572 kts 78°
2026-05-06 14:03 35.44409 143.29136 31436 ft 574 kts 66°
2026-05-06 14:03 35.46315 143.33433 31536 ft 572 kts 53°
2026-05-06 14:04 35.47923 143.35982 31667 ft 568 kts 45°
2026-05-06 14:04 35.51798 143.40201 31933 ft 556 kts 28°
2026-05-06 14:04 35.55098 143.42609 32120 ft 552 kts 25°
2026-05-06 14:04 35.58402 143.45003 32325 ft 551 kts 24°
2026-05-06 14:05 35.60649 143.46604 32468 ft 550 kts 24°
2026-05-06 14:05 35.65041 143.49715 32759 ft 549 kts 24°
2026-05-06 14:05 35.67230 143.51268 32934 ft 548 kts 24°
2026-05-06 14:05 35.70523 143.53616 33182 ft 547 kts 24°
2026-05-06 14:06 35.77129 143.58370 33377 ft 551 kts 24°
2026-05-06 14:06 35.80432 143.60766 33603 ft 550 kts 24°
2026-05-06 14:06 35.83722 143.63163 33821 ft 549 kts 24°
2026-05-06 14:07 35.87007 143.65553 34016 ft 548 kts 24°
2026-05-06 14:07 35.90289 143.67940 34211 ft 547 kts 24°
2026-05-06 14:07 35.93567 143.70324 34374 ft 547 kts 24°
2026-05-06 14:07 35.96849 143.72713 34545 ft 547 kts 24°
2026-05-06 14:08 36.00143 143.75110 34427 ft 554 kts 24°
2026-05-06 14:08 36.03481 143.77539 34384 ft 559 kts 24°
2026-05-06 14:08 36.06826 143.79983 34582 ft 557 kts 24°
2026-05-06 14:08 36.10153 143.82421 34794 ft 555 kts 24°
2026-05-06 14:09 36.13479 143.84861 34949 ft 555 kts 24°
2026-05-06 14:09 36.16800 143.87297 35092 ft 555 kts 24°
2026-05-06 14:09 36.23472 143.92193 35210 ft 560 kts 24°
2026-05-06 14:10 36.30154 143.97116 35191 ft 563 kts 23°
2026-05-06 14:10 36.36899 144.02090 35187 ft 563 kts 23°
2026-05-06 14:11 36.43629 144.07064 35190 ft 563 kts 23°
2026-05-06 14:11 36.50355 144.12045 35221 ft 563 kts 24°
2026-05-06 14:12 36.57090 144.17045 35190 ft 565 kts 23°
2026-05-06 14:12 36.63852 144.22072 35188 ft 566 kts 23°
2026-05-06 14:13 36.70615 144.27113 35186 ft 567 kts 23°
2026-05-06 14:13 36.77387 144.32171 35202 ft 567 kts 22°
2026-05-06 14:14 36.84176 144.37252 35183 ft 569 kts 22°
2026-05-06 14:14 36.90923 144.42324 35181 ft 570 kts 22°
2026-05-06 14:15 36.97729 144.47455 35184 ft 570 kts 22°
2026-05-06 14:15 37.04522 144.52586 35217 ft 570 kts 22°
2026-05-06 14:16 37.11321 144.57727 35181 ft 572 kts 22°
2026-05-06 14:16 37.18150 144.62902 35181 ft 573 kts 22°
2026-05-06 14:17 37.24928 144.68052 35181 ft 573 kts 22°
2026-05-06 14:17 37.31739 144.73239 35211 ft 573 kts 22°
2026-05-06 14:18 37.38579 144.78455 35187 ft 576 kts 22°
2026-05-06 14:18 37.45441 144.83698 35178 ft 576 kts 22°
2026-05-06 14:19 37.52292 144.88949 35180 ft 577 kts 22°
2026-05-06 14:19 37.59145 144.94213 35181 ft 577 kts 22°
2026-05-06 14:20 37.66000 144.99488 35188 ft 577 kts 22°
2026-05-06 14:20 37.72808 145.04740 35181 ft 577 kts 22°
2026-05-06 14:21 37.79663 145.10038 35182 ft 577 kts 22°
2026-05-06 14:21 37.86511 145.15341 35196 ft 577 kts 21°
2026-05-06 14:22 37.93342 145.20646 35181 ft 576 kts 21°
2026-05-06 14:22 38.00168 145.25957 35181 ft 575 kts 21°
2026-05-06 14:23 38.06993 145.31277 35181 ft 576 kts 21°
2026-05-06 14:23 38.13819 145.36611 35185 ft 575 kts 21°
2026-05-06 14:24 38.20591 145.41917 35178 ft 574 kts 21°
2026-05-06 14:24 38.27396 145.47258 35181 ft 574 kts 21°
2026-05-06 14:25 38.34051 145.52998 35191 ft 588 kts 32°
2026-05-06 14:25 38.40214 145.59937 35187 ft 592 kts 34°
2026-05-06 14:26 38.46275 145.67108 35181 ft 594 kts 35°
2026-05-06 14:26 38.52314 145.74315 35181 ft 594 kts 35°
2026-05-06 14:27 38.58321 145.81462 35179 ft 594 kts 34°
2026-05-06 14:27 38.64390 145.88671 35178 ft 594 kts 34°
2026-05-06 14:28 38.70452 145.95885 35205 ft 595 kts 35°
2026-05-06 14:28 38.76536 146.03138 35179 ft 600 kts 35°
2026-05-06 14:29 38.82647 146.10448 35182 ft 601 kts 35°
2026-05-06 14:29 38.88718 146.17735 35177 ft 601 kts 35°
2026-05-06 14:30 38.94829 146.25085 35182 ft 601 kts 35°
2026-05-06 14:30 39.00937 146.32448 35220 ft 601 kts 35°
2026-05-06 14:31 39.07048 146.39832 35176 ft 603 kts 35°
2026-05-06 14:31 39.13154 146.47228 35175 ft 603 kts 35°
2026-05-06 14:32 39.19262 146.54646 35175 ft 603 kts 35°
2026-05-06 14:32 39.25335 146.62041 35176 ft 603 kts 36°
2026-05-06 14:33 39.31439 146.69491 35175 ft 603 kts 36°
2026-05-06 14:33 39.37534 146.76952 35178 ft 601 kts 36°
2026-05-06 14:34 39.43565 146.84353 35187 ft 600 kts 36°
2026-05-06 14:34 39.49619 146.91797 35179 ft 600 kts 36°
2026-05-06 14:35 39.55666 146.99251 35173 ft 600 kts 36°
2026-05-06 14:35 39.61704 147.06714 35173 ft 600 kts 36°
2026-05-06 14:36 39.67683 147.14125 35173 ft 595 kts 37°
2026-05-06 14:36 39.73621 147.21514 35171 ft 588 kts 37°
2026-05-06 14:37 39.79528 147.28865 35174 ft 588 kts 37°
2026-05-06 14:37 39.85435 147.36234 35171 ft 588 kts 37°
2026-05-06 14:38 39.91329 147.43610 35172 ft 586 kts 37°
2026-05-06 14:38 39.97205 147.50985 35180 ft 583 kts 38°
2026-05-06 14:39 40.02981 147.58264 35170 ft 572 kts 38°
2026-05-06 14:39 40.08663 147.65427 35167 ft 571 kts 38°
2026-05-06 14:40 40.14391 147.72656 35162 ft 574 kts 38°
2026-05-06 14:40 40.20133 147.79929 35173 ft 575 kts 38°
2026-05-06 14:41 40.25868 147.87217 35166 ft 575 kts 38°
2026-05-06 14:41 40.31573 147.94488 35166 ft 566 kts 39°
2026-05-06 14:42 40.37185 148.01659 35166 ft 562 kts 39°
2026-05-06 14:42 40.42790 148.08828 35170 ft 562 kts 39°
2026-05-06 14:43 40.48349 148.15958 35170 ft 561 kts 39°
2026-05-06 14:43 40.53921 148.23124 35167 ft 560 kts 39°
2026-05-06 14:44 40.59493 148.30308 35174 ft 560 kts 39°
2026-05-06 14:45 40.67805 148.41057 35163 ft 560 kts 39°
2026-05-06 14:45 40.73356 148.48258 35164 ft 560 kts 39°
2026-05-06 14:46 40.78897 148.55466 35161 ft 558 kts 39°
2026-05-06 14:46 40.84417 148.62664 35164 ft 557 kts 39°
2026-05-06 14:47 40.89929 148.69866 35187 ft 557 kts 40°
2026-05-06 14:47 40.95407 148.77046 35158 ft 551 kts 40°
2026-05-06 14:48 41.00845 148.84189 35160 ft 550 kts 40°
2026-05-06 14:48 41.06280 148.91344 35157 ft 550 kts 40°
2026-05-06 14:49 41.11677 148.98470 35156 ft 551 kts 40°
2026-05-06 14:49 41.17104 149.05656 35154 ft 551 kts 40°
2026-05-06 14:50 41.22525 149.12852 35162 ft 549 kts 41°
2026-05-06 14:50 41.27883 149.19989 35150 ft 543 kts 41°
2026-05-06 14:51 41.33224 149.27113 35151 ft 543 kts 41°
2026-05-06 14:51 41.38552 149.34238 35151 ft 542 kts 41°
2026-05-06 14:52 41.43839 149.41326 35143 ft 541 kts 41°
2026-05-06 14:52 41.49139 149.48448 35144 ft 541 kts 41°
2026-05-06 14:53 41.53557 149.54400 35149 ft 542 kts 41°
2026-05-06 14:53 41.58835 149.61525 35134 ft 538 kts 41°
2026-05-06 14:54 41.64089 149.68639 35140 ft 537 kts 41°
2026-05-06 14:54 41.69345 149.75768 35130 ft 537 kts 41°
2026-05-06 14:55 41.74578 149.82886 35132 ft 536 kts 41°
2026-05-06 14:55 41.79806 149.90014 35124 ft 536 kts 41°
2026-05-06 14:56 41.85028 149.97152 35144 ft 536 kts 42°
2026-05-06 14:56 41.90235 150.04286 35128 ft 533 kts 42°
2026-05-06 14:57 41.95383 150.11360 35123 ft 532 kts 42°
2026-05-06 14:57 42.00553 150.18481 35125 ft 532 kts 42°
2026-05-06 14:58 42.05721 150.25615 35116 ft 532 kts 42°
2026-05-06 14:58 42.10882 150.32757 35113 ft 532 kts 42°
2026-05-06 14:59 42.16039 150.39911 35111 ft 533 kts 42°
2026-05-06 14:59 42.21198 150.47086 35102 ft 531 kts 42°
2026-05-06 15:00 42.26331 150.54244 35106 ft 530 kts 42°
2026-05-06 15:00 42.31454 150.61405 35104 ft 530 kts 42°
2026-05-06 15:01 42.36576 150.68581 35106 ft 530 kts 43°
2026-05-06 15:01 42.41669 150.75735 35102 ft 530 kts 43°
2026-05-06 15:02 42.46778 150.82932 35093 ft 530 kts 42°
2026-05-06 15:02 42.51894 150.90155 35101 ft 530 kts 42°
2026-05-06 15:03 42.56979 150.97353 35091 ft 527 kts 43°
2026-05-06 15:03 42.62045 151.04541 35083 ft 527 kts 43°
2026-05-06 15:04 42.67115 151.11753 35094 ft 527 kts 43°
2026-05-06 15:04 42.72175 151.18969 35079 ft 527 kts 43°
2026-05-06 15:05 42.77226 151.26191 35085 ft 527 kts 43°
2026-05-06 15:05 42.82282 151.33439 35080 ft 527 kts 43°
2026-05-06 15:06 42.87328 151.40690 35075 ft 527 kts 43°
2026-05-06 15:06 42.92331 151.47899 35075 ft 527 kts 43°
2026-05-06 15:07 42.97362 151.55165 35071 ft 527 kts 43°
2026-05-06 15:07 43.02396 151.62453 35069 ft 527 kts 43°
2026-05-06 15:08 43.07422 151.69750 35072 ft 527 kts 43°
2026-05-06 15:08 43.12444 151.77061 35064 ft 527 kts 43°
2026-05-06 15:09 43.17472 151.84396 35072 ft 528 kts 43°
2026-05-06 15:09 43.22493 151.91743 35064 ft 527 kts 43°
2026-05-06 15:10 43.27501 151.99089 35067 ft 527 kts 43°
2026-05-06 15:10 43.32504 152.06446 35059 ft 527 kts 43°
2026-05-06 15:11 43.37472 152.13770 35049 ft 527 kts 43°
2026-05-06 15:11 43.42470 152.21159 35056 ft 527 kts 43°
2026-05-06 15:12 43.47461 152.28556 35052 ft 527 kts 43°
2026-05-06 15:12 43.52446 152.35963 35050 ft 527 kts 43°
2026-05-06 15:13 43.57428 152.43385 35055 ft 526 kts 43°
2026-05-06 15:13 43.62402 152.50815 35045 ft 527 kts 43°
2026-05-06 15:14 43.67336 152.58204 35041 ft 527 kts 43°
2026-05-06 15:14 43.72303 152.65663 35041 ft 527 kts 43°
2026-05-06 15:15 43.77259 152.73125 35036 ft 527 kts 43°
2026-05-06 15:15 43.82215 152.80605 35037 ft 527 kts 43°
2026-05-06 15:16 43.87171 152.88106 35036 ft 527 kts 43°
2026-05-06 15:16 43.92115 152.95609 35034 ft 527 kts 43°
2026-05-06 15:17 43.97060 153.03133 35032 ft 527 kts 43°
2026-05-06 15:17 44.02008 153.10682 35032 ft 528 kts 43°
2026-05-06 15:18 44.06946 153.18235 35033 ft 528 kts 43°
2026-05-06 15:18 44.11845 153.25750 35026 ft 528 kts 43°
2026-05-06 15:19 44.16774 153.33330 35031 ft 528 kts 43°
2026-05-06 15:19 44.21702 153.40928 35020 ft 528 kts 43°
2026-05-06 15:20 44.26629 153.48547 35017 ft 528 kts 43°
2026-05-06 15:20 44.31553 153.56180 35013 ft 529 kts 43°
2026-05-06 15:21 44.36465 153.63818 35012 ft 529 kts 43°
2026-05-06 15:21 44.41379 153.71478 35016 ft 528 kts 43°
2026-05-06 15:22 44.46256 153.79102 35005 ft 528 kts 43°
2026-05-06 15:22 44.51155 153.86780 35025 ft 528 kts 43°
2026-05-06 15:23 44.56053 153.94477 35016 ft 529 kts 43°
2026-05-06 15:23 44.60958 154.02207 35002 ft 529 kts 43°
2026-05-06 15:24 44.65848 154.09935 34998 ft 529 kts 43°
2026-05-06 15:24 44.70738 154.17684 34993 ft 529 kts 43°
2026-05-06 15:25 44.75620 154.25443 34992 ft 530 kts 43°
2026-05-06 15:25 44.80467 154.33165 34991 ft 530 kts 43°
2026-05-06 15:26 44.85349 154.40965 35009 ft 530 kts 43°
2026-05-06 15:26 44.90193 154.48819 34989 ft 532 kts 44°
2026-05-06 15:27 44.95008 154.56782 34991 ft 533 kts 44°
2026-05-06 15:27 44.99816 154.64756 34982 ft 533 kts 44°
2026-05-06 15:28 45.04628 154.72733 34993 ft 533 kts 44°
2026-05-06 15:28 45.09414 154.80679 34986 ft 533 kts 44°
2026-05-06 15:29 45.14229 154.88693 34976 ft 533 kts 44°
2026-05-06 15:29 45.19033 154.96714 34973 ft 534 kts 44°
2026-05-06 15:30 45.23833 155.04750 34975 ft 535 kts 44°
2026-05-06 15:30 45.28647 155.12832 34973 ft 536 kts 44°
2026-05-06 15:31 45.33464 155.20945 34970 ft 537 kts 44°
2026-05-06 15:31 45.38271 155.29066 34970 ft 537 kts 44°
2026-05-06 15:32 45.45459 155.41250 34966 ft 537 kts 44°
2026-05-06 15:32 45.50260 155.49418 34961 ft 538 kts 44°
2026-05-06 15:33 45.55055 155.57600 34976 ft 538 kts 44°
2026-05-06 15:33 45.59861 155.65822 34962 ft 541 kts 44°
2026-05-06 15:34 45.64674 155.74083 34958 ft 541 kts 44°
2026-05-06 15:34 45.69489 155.82373 34966 ft 541 kts 44°
2026-05-06 15:35 45.74297 155.90674 34951 ft 542 kts 44°
2026-05-06 15:35 45.79101 155.98994 34953 ft 542 kts 44°
2026-05-06 15:36 45.83905 156.07339 34952 ft 542 kts 44°
2026-05-06 15:36 45.88668 156.15635 34945 ft 542 kts 44°
2026-05-06 15:37 45.93464 156.24015 34947 ft 543 kts 44°
2026-05-06 15:37 45.98253 156.32407 34938 ft 543 kts 44°
2026-05-06 15:38 46.02265 156.39458 34963 ft 544 kts 44°
2026-05-06 15:38 46.07019 156.47837 34937 ft 545 kts 44°
2026-05-06 15:39 46.11806 156.56297 34931 ft 545 kts 45°
2026-05-06 15:39 46.16592 156.64784 34932 ft 545 kts 45°
2026-05-06 15:40 46.21377 156.73295 34928 ft 545 kts 45°
2026-05-06 15:40 46.26153 156.81813 34935 ft 545 kts 44°
2026-05-06 15:41 46.30927 156.90355 34925 ft 546 kts 44°
2026-05-06 15:41 46.35697 156.98918 34928 ft 546 kts 44°
2026-05-06 15:42 46.40435 157.07449 34917 ft 547 kts 44°
2026-05-06 15:42 46.45199 157.16052 34914 ft 547 kts 44°
2026-05-06 15:43 46.49954 157.24666 34913 ft 547 kts 44°
2026-05-06 15:43 46.54712 157.33314 34909 ft 548 kts 44°
2026-05-06 15:44 46.59462 157.41973 34961 ft 548 kts 44°
2026-05-06 15:44 46.64208 157.50652 34906 ft 547 kts 44°
2026-05-06 15:45 46.68942 157.59337 34900 ft 547 kts 44°
2026-05-06 15:45 46.73643 157.67990 34899 ft 547 kts 44°
2026-05-06 15:46 46.78366 157.76708 34896 ft 548 kts 44°
2026-05-06 15:46 46.83080 157.85438 34892 ft 548 kts 44°
2026-05-06 15:47 46.87794 157.94196 34893 ft 548 kts 44°
2026-05-06 15:47 46.92505 158.02973 34892 ft 548 kts 44°
2026-05-06 15:48 46.97178 158.11708 34896 ft 548 kts 44°
2026-05-06 15:48 47.01883 158.20532 34891 ft 550 kts 43°
2026-05-06 15:49 47.06587 158.29381 34884 ft 550 kts 44°
2026-05-06 15:49 47.11291 158.38262 34881 ft 551 kts 44°
2026-05-06 15:50 47.15986 158.47154 34878 ft 551 kts 44°
2026-05-06 15:50 47.20647 158.56009 34875 ft 551 kts 44°
2026-05-06 15:51 47.25333 158.64940 34873 ft 551 kts 44°
2026-05-06 15:51 47.30019 158.73901 34873 ft 551 kts 44°
2026-05-06 15:52 47.34695 158.82870 34881 ft 551 kts 44°
2026-05-06 15:52 47.39362 158.91854 34867 ft 552 kts 44°
2026-05-06 15:53 47.43998 159.00806 34867 ft 552 kts 44°
2026-05-06 15:53 47.48655 159.09828 34865 ft 552 kts 44°
2026-05-06 15:54 47.53308 159.18871 34857 ft 552 kts 44°
2026-05-06 15:54 47.57954 159.27933 34857 ft 552 kts 44°
2026-05-06 15:55 47.62594 159.37011 34854 ft 552 kts 44°
2026-05-06 15:55 47.67231 159.46115 34871 ft 553 kts 44°
2026-05-06 15:56 47.71844 159.55198 34849 ft 555 kts 44°
2026-05-06 15:56 47.76490 159.64378 34846 ft 556 kts 44°
2026-05-06 15:57 47.81134 159.73590 34840 ft 556 kts 44°
2026-05-06 15:57 47.85767 159.82810 34842 ft 556 kts 44°
2026-05-06 15:58 47.90396 159.92051 34842 ft 556 kts 44°
2026-05-06 15:58 47.94990 160.01253 34830 ft 557 kts 44°
2026-05-06 15:59 47.99611 160.10542 34838 ft 557 kts 45°
2026-05-06 15:59 48.04224 160.19846 34830 ft 558 kts 44°
2026-05-06 16:00 48.08840 160.29184 34825 ft 558 kts 44°
2026-05-06 16:00 48.13450 160.38547 34823 ft 559 kts 45°
2026-05-06 16:01 48.18050 160.47924 34822 ft 558 kts 45°
2026-05-06 16:01 48.22601 160.57232 34815 ft 557 kts 45°
2026-05-06 16:02 48.27167 160.66601 35032 ft 554 kts 45°
2026-05-06 16:02 48.29419 160.71265 35449 ft 549 kts 46°
2026-05-06 16:02 48.31608 160.75946 35841 ft 545 kts 47°
2026-05-06 16:03 48.33751 160.80627 36251 ft 540 kts 48°
2026-05-06 16:03 48.35857 160.85260 36629 ft 536 kts 48°
2026-05-06 16:03 48.37961 160.89886 36793 ft 536 kts 49°
2026-05-06 16:03 48.40076 160.94519 36808 ft 538 kts 48°
2026-05-06 16:04 48.44348 161.03856 36811 ft 543 kts 48°
2026-05-06 16:04 48.48633 161.13246 36813 ft 543 kts 49°
2026-05-06 16:05 48.52895 161.22623 36793 ft 542 kts 49°
2026-05-06 16:05 48.57145 161.32007 36790 ft 542 kts 49°
2026-05-06 16:06 48.61393 161.41416 36791 ft 542 kts 49°
2026-05-06 16:06 48.65630 161.50831 36785 ft 541 kts 49°
2026-05-06 16:07 48.69834 161.60207 36782 ft 542 kts 49°
2026-05-06 16:07 48.74054 161.69654 36782 ft 541 kts 50°
2026-05-06 16:08 48.78267 161.79116 36775 ft 542 kts 50°
2026-05-06 16:08 48.82475 161.88602 36771 ft 541 kts 50°
2026-05-06 16:09 48.86672 161.98095 36770 ft 541 kts 50°
2026-05-06 16:09 48.90859 162.07599 36767 ft 541 kts 50°
2026-05-06 16:10 48.95008 162.17052 36772 ft 541 kts 50°
2026-05-06 16:10 48.99175 162.26578 36757 ft 540 kts 50°
2026-05-06 16:11 49.03333 162.36117 36762 ft 540 kts 51°
2026-05-06 16:11 49.07487 162.45681 36754 ft 540 kts 51°
2026-05-06 16:12 49.11628 162.55250 36747 ft 540 kts 51°
2026-05-06 16:12 49.15757 162.64826 36746 ft 540 kts 51°
2026-05-06 16:13 49.19891 162.74446 36746 ft 540 kts 51°
2026-05-06 16:13 49.24012 162.84072 36742 ft 540 kts 51°
2026-05-06 16:14 49.28129 162.93722 36742 ft 540 kts 51°
2026-05-06 16:14 49.32224 163.03358 36738 ft 540 kts 51°
2026-05-06 16:15 49.36296 163.12973 36730 ft 540 kts 51°
2026-05-06 16:15 49.40378 163.22646 36727 ft 540 kts 52°
2026-05-06 16:16 49.44456 163.32344 36743 ft 540 kts 52°
2026-05-06 16:16 49.48529 163.42068 36725 ft 541 kts 52°
2026-05-06 16:17 49.52600 163.51821 36720 ft 541 kts 52°
2026-05-06 16:17 49.56661 163.61588 36723 ft 541 kts 52°
2026-05-06 16:18 49.60718 163.71376 36720 ft 543 kts 52°
2026-05-06 16:18 49.64774 163.81203 36708 ft 543 kts 53°
2026-05-06 16:19 49.68802 163.91000 36707 ft 543 kts 53°
2026-05-06 16:19 49.72850 164.00882 36707 ft 543 kts 53°
2026-05-06 16:20 49.76883 164.10762 36705 ft 544 kts 53°
2026-05-06 16:20 49.80915 164.20676 36705 ft 543 kts 53°
2026-05-06 16:21 49.84921 164.30567 36694 ft 542 kts 53°
2026-05-06 16:21 49.88926 164.40490 36706 ft 542 kts 54°
2026-05-06 16:22 49.92883 164.50333 36690 ft 540 kts 54°
2026-05-06 16:22 49.96852 164.60240 36689 ft 540 kts 54°
2026-05-06 16:23 50.00812 164.70162 36684 ft 540 kts 54°
2026-05-06 16:23 50.04761 164.80095 36688 ft 540 kts 54°
2026-05-06 16:24 50.08706 164.90055 36677 ft 539 kts 54°
2026-05-06 16:24 50.12633 165.00010 36679 ft 539 kts 54°
2026-05-06 16:25 50.16589 165.09945 36674 ft 537 kts 51°
2026-05-06 16:25 50.21354 165.18767 36672 ft 531 kts 43°
2026-05-06 16:26 50.26396 165.27203 36655 ft 530 kts 42°
2026-05-06 16:26 50.30602 165.34148 36655 ft 529 kts 42°
2026-05-06 16:27 50.36480 165.43904 36660 ft 530 kts 43°
2026-05-06 16:27 50.41521 165.52334 36659 ft 530 kts 43°
2026-05-06 16:28 50.45706 165.59360 36662 ft 529 kts 44°
2026-05-06 16:28 50.50724 165.67815 36651 ft 529 kts 44°
2026-05-06 16:29 50.55738 165.76293 36647 ft 529 kts 44°
2026-05-06 16:29 50.60750 165.84793 36647 ft 529 kts 44°
2026-05-06 16:30 50.64904 165.91861 36644 ft 529 kts 44°
2026-05-06 16:30 50.70711 166.01772 36640 ft 529 kts 44°
2026-05-06 16:31 50.75705 166.10328 36640 ft 529 kts 44°
2026-05-06 16:31 50.80683 166.18883 36629 ft 529 kts 44°
2026-05-06 16:32 50.85657 166.27462 36631 ft 529 kts 44°
2026-05-06 16:32 50.90630 166.36069 36631 ft 529 kts 44°
2026-05-06 16:33 50.95597 166.44694 36623 ft 529 kts 44°
2026-05-06 16:34 51.02998 166.57600 36623 ft 529 kts 44°
2026-05-06 16:34 51.07949 166.66271 36614 ft 528 kts 45°
2026-05-06 16:35 51.12879 166.74935 36613 ft 527 kts 45°
2026-05-06 16:35 51.17795 166.83605 36606 ft 527 kts 45°
2026-05-06 16:36 51.22705 166.92293 36606 ft 527 kts 45°
2026-05-06 16:36 51.27606 167.00995 36595 ft 527 kts 45°
2026-05-06 16:37 51.32507 167.09726 36597 ft 526 kts 45°
2026-05-06 16:37 51.37389 167.18455 36598 ft 526 kts 45°
2026-05-06 16:38 51.42228 167.27139 36592 ft 525 kts 45°
2026-05-06 16:38 51.47094 167.35900 36592 ft 525 kts 46°
2026-05-06 16:39 51.51954 167.44679 36585 ft 525 kts 46°
2026-05-06 16:39 51.56799 167.53463 36583 ft 525 kts 46°
2026-05-06 16:40 51.61629 167.62250 36585 ft 525 kts 46°
2026-05-06 16:40 51.66454 167.71058 36579 ft 524 kts 46°
2026-05-06 16:41 51.71232 167.79813 36578 ft 523 kts 46°
2026-05-06 16:41 51.76028 167.88630 36568 ft 522 kts 47°
2026-05-06 16:42 51.80816 167.97463 36575 ft 522 kts 47°
2026-05-06 16:42 51.85604 168.06327 36576 ft 522 kts 47°
2026-05-06 16:43 51.90385 168.15209 36566 ft 522 kts 47°
2026-05-06 16:43 51.95124 168.24043 36570 ft 522 kts 47°
2026-05-06 16:44 51.99877 168.32936 36564 ft 521 kts 47°
2026-05-06 16:44 52.04619 168.41841 36564 ft 521 kts 47°
2026-05-06 16:45 52.09353 168.50762 36568 ft 521 kts 47°
2026-05-06 16:45 52.14093 168.59725 36556 ft 522 kts 47°
2026-05-06 16:46 52.18821 168.68693 36556 ft 522 kts 48°
2026-05-06 16:46 52.23543 168.77689 36563 ft 522 kts 48°
2026-05-06 16:47 52.28271 168.86727 36554 ft 524 kts 48°
2026-05-06 16:47 52.32992 168.95780 36554 ft 523 kts 48°
2026-05-06 16:48 52.37679 169.04803 36547 ft 522 kts 49°
2026-05-06 16:48 52.42367 169.13859 36551 ft 521 kts 49°
2026-05-06 16:49 52.47065 169.22967 36549 ft 523 kts 49°
2026-05-06 16:49 52.51741 169.32071 36548 ft 521 kts 49°
2026-05-06 16:50 52.56416 169.41203 36551 ft 521 kts 49°